WILDBLUE-1

Last updated on Sat Aug 22 2026 00:02:56 GMT+0000 (Coordinated Universal Time)

1 29643U 06054A 26233.50907398 -.00000295 00000+0 00000+0 0 9991 2 29643 2.9660 79.6383 0004738 80.1244 128.9861 0.99179229 54446
UTC large
Height (km)
Speed (km/s)
/
Latitude / Longitude
Inclination (degrees)
Orbital Period (minutes)
Azimuth
Elevation
Range (km)
Doppler Factor

Next 0 passes for location: London (51.5072 / 0.1276)

No passes found over London.
WILDBLUE-1